Tracking 28790 objects as of 19-Apr-2024
HD Live streaming from Space Station
objects crossing your sky now

STARLINK-2298

Track STARLINK-2298 now!
10-day predictions
STARLINK-2298 is classified as:


NORAD ID: 48022
Int'l Code: 2021-024AX
Perigee: 553.4 km
Apogee: 555.5 km
Inclination: 53.1 °
Period: 95.6 minutes
Semi major axis: 6925 km
RCS: Unknown
Launch date: March 24, 2021
Source: United States (US)
Launch site: AIR FORCE EASTERN TEST RANGE (AFETR)
Your satellite tracking list
Your tracking list is empty




NASA's NSSDC Master Catalog

Two Line Element Set (TLE):
1 48022U 21024AX  24109.52715304  .00009700  00000-0  66984-3 0  9990
2 48022  53.0533 190.1557 0001530 110.0647 250.0507 15.06362870170604
Source of the keplerian elements: AFSPC